Regional Weather Roundup
Issued by NWS

Home | Current Version | Previous Version | Graphics & Text | Print | Product List | Glossary On
Versions: 1 2 3 4 5 6 7 8 9 10 11 12 13 14 15 16 17 18 19 20 21 22 23 24 25 26 27 28 29 30 31 32 33 34 35 36 37 38 39 40 41 42 43 44 45 46 47 48 49 50
000
ASUS43 KMKX 250411
RWRWI

WISCONSIN REGIONAL WEATHER ROUNDUP
NATIONAL WEATHER SERVICE MILWAUKEE/SULLIVAN WI
1100 PM CDT THU APR 24 2014

NOTE: "FAIR" INDICATES FEW OR NO CLOUDS BELOW 12,000 FEET WITH NO
SIGNIFICANT WEATHER AND/OR OBSTRUCTIONS TO VISIBILITY.

WIZ001-002-006>008-014>016-023>028-250500-
NORTHWEST WISCONSIN

CITY           SKY/WX    TMP DP  RH WIND       PRES   REMARKS
SUPERIOR ARPT  LGT SNOW  32  32 100 NE5       29.71S WCI  27
ASHLAND        CLOUDY    34  34 100 NE3       29.71F FOG
HAYWARD        CLOUDY    38  38 100 S5        29.67S FOG     WCI  34
SIREN          CLOUDY    37  36  99 W5        29.71S FOG     WCI  33
RICE LAKE      CLOUDY    41  40  95 W9        29.71S
LADYSMITH      CLOUDY    41  41  97 S5        29.70F FOG
EAU CLAIRE     CLOUDY    43  42  97 W7        29.70S
MENOMONIE      CLOUDY    42  42  99 W8        29.72S
NEW RICHMOND   CLOUDY    41  38  91 W10       29.72S
OSCEOLA        CLOUDY    41  41  99 CALM      29.75S
$$

WIZ003>005-009-010-017-018-250500-
NORTH CENTRAL WISCONSIN

CITY           SKY/WX    TMP DP  RH WIND       PRES   REMARKS
WOODRUFF       LGT RAIN  37  35  93 SE8       29.70S WCI  30
RHINELANDER    LGT RAIN  35  34  96 SE14      29.70S FOG     WCI  26
EAGLE RIVER    RAIN      34  34  99 SE15G21   29.69F WCI  24
LAND O LAKES   MIX PCPN  35  33  94 SE10G21   29.72F WCI  27
PHILLIPS       DRIZZLE   37  37  97 SE7       29.68S WCI  32
TOMAHAWK       DRIZZLE   36  35  95 CALM      29.70S
MEDFORD        DRIZZLE   39  38  97 SE8       29.69S WCI  33
MERRILL        LGT RAIN  37  37  99 SE10G18   29.69S WCI  30
$$

WIZ029-030-035-036-043>047-250500-
CENTRAL WISCONSIN

CITY           SKY/WX    TMP DP  RH WIND       PRES   REMARKS
WAUSAU         LGT RAIN  39  39 100 SE10      29.68F FOG     WCI  32
MOSINEE        DRIZZLE   37  37 100 SE13G18   29.70S WCI  29
MARSHFIELD     CLOUDY    41  40  96 S6        29.69R FOG
STEVENS POINT  DRIZZLE   37  36  95 E9        29.70F WCI  31
WAUPACA        CLOUDY    43  39  87 NE5       29.72F
WAUTOMA        CLOUDY    43  39  87 NE6       29.69F
WISC RAPIDS    LGT RAIN  41  39  93 SE5       29.69F FOG
CAMP DOUGLAS   LGT RAIN  46  46 100 NW12      29.69S FOG
$$

WIZ011>013-019>022-031-037>040-048>050-250500-
NORTHEAST WISCONSIN

CITY           SKY/WX    TMP DP  RH WIND       PRES   REMARKS
ANTIGO         CLOUDY    35  34  96 E17G25    29.71S WCI  25
STURGEON BAY   CLOUDY    39  30  70 SE7       29.80F WCI  34
GREEN BAY      LGT RAIN  41  38  89 E8        29.75F
MANITOWOC      LGT RAIN  42  34  73 SE10      29.76F
APPLETON       LGT RAIN  43  36  75 E8        29.73F
CLINTONVILLE   RAIN      39  37  93 E8        29.73F WCI  34
OSHKOSH        LGT RAIN  44  37  76 SE7       29.70F
$$

WIZ032>034-041-042-053>061-250500-
SOUTHWEST WISCONSIN

CITY           SKY/WX    TMP DP  RH WIND       PRES   REMARKS
LA CROSSE      CLOUDY    46  40  79 W12       29.72S
SPARTA         CLOUDY    45  43  93 W6        29.72S
VIROQUA        CLOUDY    45  45 100 NW8       29.71R
BOSCOBEL       CLOUDY    50  46  86 W6        29.71R
PRAIRIE DU CHI CLOUDY    48  44  85 NW12      29.72R
PLATTEVILLE    CLOUDY    50  48  95 NW10      29.69F
$$

WIZ056-057-062-063-064-067-068-250500-
SOUTH CENTRAL WISCONSIN

CITY           SKY/WX    TMP DP  RH WIND       PRES   REMARKS
BARABOO/DELLS  DRZL/FOG  46  44  95 CALM      29.67F VSB 3/4
LONE ROCK      LGT RAIN  50  49  96 W3        29.68S FOG
WATERTOWN      DRIZZLE   50  35  58 SE7       29.69S
MADISON        LGT RAIN  48  46  93 SE13      29.65F FOG
MIDDLETON      CLOUDY    50  48  95 W10       29.67F
MONROE         LGT RAIN  50  50 100 SE7       29.65F
JANESVILLE     RAIN      54  41  62 CALM      29.68S
$$

WIZ051-052-058>065-066-070>072-250500-
SOUTHEAST WISCONSIN

CITY           SKY/WX    TMP DP  RH WIND       PRES   REMARKS
MILWAUKEE      LGT RAIN  46  35  65 SE12      29.72F
WAUKESHA       LGT RAIN  45  36  70 SE8       29.71F
MILWAUKEE/TIMM LGT RAIN  45  34  65 SE7       29.73F
RACINE         CLOUDY    46  34  62 SE14      29.72F
BURLINGTON     LGT RAIN  47  37  67 MISG      29.69F
KENOSHA        LGT RAIN  48  34  58 SE10      29.70F
FOND DU LAC    LGT RAIN  45  36  70 SE10      29.70F
SHEBOYGAN      LGT RAIN  44  32  62 SE10      29.74F
WEST BEND      LGT RAIN  43  32  65 SE6       29.72F
JUNEAU         LGT RAIN  46  34  63 SE8       29.71R
$$

LSZ147-162-250500-
LAKE SUPERIOR

STATION/POSITION TIME  TEMP    WIND        PRES    WAVE
                       AIR SEA DIR/SP/G            HT/PER
                 (UTC) (F)     (DEG/KT/KT) (MB)    (FT/S)
DEVILS ISLAND    0400   33     100/ 18/ 21 1007.1F
PORT WING        0340   33      30/  7/  9 1005.8F
SAXON HARBOR     0340           CALM  /  6 1006.1F
$$

LMZ867-665-643>646-250500-
LAKE MICHIGAN

STATION/POSITION TIME  TEMP    WIND        PRES    WAVE
                       AIR SEA DIR/SP/G            HT/PER
                 (UTC) (F)     (DEG/KT/KT) (MB)    (FT/S)
NORTHPORT PIER   0300   38      80/ 19/ 22 1010.5F
SISTER BAY       0323   41     120/  9/ 15   N/A
KEWAUNEE LAKESHO 0300   39      30/  8/  9 1010.1R
SHEBOYGAN LAKESH 0400   42     110/ 11/ 11 1007.9F
PORT WASHINGTON  0300   43     150/  4/ 18 1008.5R
MILWAUKEE LAKESH 0300   43     160/ 13/ 15   N/A
KENOSHA   LAKESH 0400   43     130/ 13/ 15   N/A
$$

TC  - TEMPERATURE IN CELSIUS
VSB - VISIBILITY IN STATUTE MILES
WCI - WIND CHILL INDEX
HX  - HEAT INDEX




USA.gov is the U.S. government's official web portal to all federal, state and local government web resources and services.